Weather in Sergiev Posad

Russia / Moscow Oblast     56°18′55″N   38°08′09″E
temp.,
°C
wind,
m/s
gust,
m/s
humid.,
%
clouds,
%
prec.,
mm/h
press.,
hPa
HPBL,
m
5 march, fri
fri500:00−9nw239133 0.0 100244
03:00−9wnw259736 0.0 100495
06:00−10wnw239778 0.0 100579
09:00−7wnw489279 0.1 1006482
12:00−4wnw587898 0.1 10071185
15:00−4wnw587299 0.4 10091395
18:00−7wnw238599 0.3 101156
21:00−10nw228982 0.3 101421
6 march, sat
sat600:00−12nw12920 0.0 101521
03:00−12w22930 0.0 101621
06:00−13wnw23950 0.0 101557
09:00−10nw37920 0.0 1016321
12:00−7nw358391 0.0 1017713
15:00−7nw357795 0.1 10161001
18:00−11wnw128766 0.1 101521
21:00−12sw238932 0.1 101431
7 march, sun
sun700:00−11ssw389333 0.0 1011191
03:00−9sw5138954 0.0 1007543
06:00−7sw61489100 0.3 1003824
09:00−6sw71492100 0.6 9971052
12:00−4sw71392100 1.7 9931124
15:00−5wnw61284100 3.4 992990
18:00−7wnw5129288 0.5 995801
21:00−10wsw398394 0.6 996249
8 march, mon
mon800:00−7sw41195100 0.9 994753
03:00−7w31095100 1.5 993471
06:00−9w3896100 0.3 993344
09:00−11nw61283100 1.4 996621
12:00−9nw6118696 0.2 999937
15:00−8nw6118598 0.4 10021122
18:00−10nw41091100 0.3 1005849
21:00−13nw4119278 0.4 1008405
9 march, tue
tue900:00−14nnw399584 0.1 1010381
03:00−17nnw399690 0.1 1012288
06:00−18nnw399698 0.1 1014276
09:00−19nnw489498 0.1 1016333
12:00−15nnw478892 0.0 1018470
15:00−14nnw478388 0.0 1018647
18:00−17nnw389044 0.0 1019235
21:00−21nnw239522 0.0 102157